Regional Weather Roundup
Issued by NWS

Home | Current Version | Previous Version | Graphics & Text | Print | Product List | Glossary On
Versions: 1 2 3 4 5 6 7 8 9 10 11 12 13 14 15 16 17 18 19 20 21 22 23 24 25 26 27 28 29 30 31 32 33 34 35 36 37 38 39 40 41 42 43 44 45 46 47 48 49 50
000
ASUS45 KCYS 051610
RWRWY

WYOMING REGIONAL WEATHER ROUNDUP
NATIONAL WEATHER SERVICE CHEYENNE WY
1000 AM MDT TUE MAY 05 2015

NOTE:  "FAIR" INDICATES FEW OR NO CLOUDS BELOW 12,000 FEET
WITH NO SIGNIFICANT WEATHER AND/OR OBSTRUCTIONS TO VISIBILITY.

WYZ001-051700-
YELLOWSTONE NATIONAL PARK

CITY           SKY/WX    TMP DP  RH WIND       PRES   REMARKS
LK YELLOWSTONE   N/A     42  31  64 CALM      30.02F
W YELLOWSTONE  NOT AVBL

$$
WYZ002>013-054>058-071-098>099-051700-
NORTHERN WYOMING

CITY           SKY/WX    TMP DP  RH WIND       PRES   REMARKS
JACKSON        NOT AVBL
CODY           FAIR      61  39  44 E3        29.86S
GREYBULL       FAIR      65  43  44 CALM      29.82F
WORLAND        FAIR      65  44  46 VRB3      29.83F
SHERIDAN       FAIR      62  46  55 VRB6      29.84F
BUFFALO        FAIR      61  46  57 SE17      29.88F
GILLETTE       FAIR      54  44  69 SE20G26   29.90F
HULETT         FAIR      64  45  48 S14       29.93S
NEWCASTLE      FAIR      59  43  55 S14       29.95F

$$
WYZ014>020-022>026-101>103-051700-
CENTRAL WYOMING

CITY           SKY/WX    TMP DP  RH WIND       PRES   REMARKS
BIG PINEY      PTSUNNY   54  38  54 VRB3      29.97F
PINEDALE       FAIR      52  37  58 CALM      29.98F
DUBOIS         CLOUDY    52  34  50 W5        29.96S
LANDER         FAIR      58  42  55 N5        29.88F
RIVERTON       FAIR      59  42  53 NW5       29.90F
CASPER         CLOUDY    49  43  80 E7        29.92S
DOUGLAS        CLOUDY    48  44  86 SE16      29.94F

$$
WYZ021-027>030-104>119-051700-
SOUTHERN WYOMING

CITY           SKY/WX    TMP DP  RH WIND       PRES   REMARKS
EVANSTON       PTSUNNY   51  38  60 CALM      29.96F
KEMMERER       FAIR      54  41  62 NE5       29.97F
FORT BRIDGER   SUNNY     50  46  87 CALM      30.00S
ROCK SPRINGS   FAIR      52  41  66 VRB3      29.94F
DIXON          FAIR      55  39  54 CALM      29.94F
RAWLINS        FAIR      47  40  76 SE6       29.95F
SARATOGA       FAIR      50  41  71 MISG      29.94F
LARAMIE        FAIR      50  40  68 SE26      29.94F
CHEYENNE       FOG       45  44  97 S12       29.99S VSB 1/4
TORRINGTON     CLOUDY    51  45  79 S12       29.97F
PINE BLUFFS    CLOUDY    50  46  87 S6        29.99F

$$


USA.gov is the U.S. government's official web portal to all federal, state and local government web resources and services.